Location: Quedlinburg
(51.7921°N, 11.1414°E)
Time: 17:47:37
(UTC+01:00)

ZACube-1 - Visible Passes

Search period start: 14 March 2026 00:00
Search period end: 24 March 2026 00:00
Orbit: 536 x 596 km, 97.8° (Epoch: 14 March)

Date Brightness Start Highest point End Pass type
(mag) Time Alt. Az. Time Alt. Az. Time Alt. Az.
14 Mar ? 03:04:31 10° NNE 03:07:10 30° ENE 03:07:10 30° ENE visible
14 Mar ? 04:39:46 10° N 04:43:12 27° WNW 04:43:12 27° WNW visible
15 Mar ? 03:05:04 10° NNE 03:07:49 31° ENE 03:07:49 31° ENE visible
15 Mar ? 04:40:19 10° N 04:43:44 27° WNW 04:43:52 27° WNW visible
16 Mar ? 03:05:35 10° NNE 03:08:29 32° ENE 03:08:29 32° ENE visible
16 Mar ? 04:40:50 10° N 04:44:15 27° WNW 04:44:31 26° WNW visible
17 Mar ? 03:06:06 10° NNE 03:09:07 33° ENE 03:09:07 33° ENE visible
17 Mar ? 04:41:22 10° N 04:44:45 26° WNW 04:45:10 26° WNW visible
18 Mar ? 03:06:35 10° NNE 03:09:45 34° ENE 03:09:45 34° ENE visible
18 Mar ? 04:41:52 10° N 04:45:14 26° WNW 04:45:48 25° WNW visible
19 Mar ? 03:07:05 10° NNE 03:10:23 36° E 03:10:23 36° E visible
19 Mar ? 04:42:22 10° N 04:45:43 26° WNW 04:46:25 24° W visible
20 Mar ? 03:07:34 10° NNE 03:10:59 36° E 03:10:59 36° E visible
20 Mar ? 04:42:52 10° N 04:46:12 25° WNW 04:47:02 24° W visible
21 Mar ? 03:08:02 10° NNE 03:11:36 37° E 03:11:36 37° E visible
21 Mar ? 04:43:22 10° N 04:46:40 25° WNW 04:47:37 23° W visible
22 Mar ? 03:08:30 10° NNE 03:12:11 38° E 03:12:11 38° E visible
22 Mar ? 04:43:50 10° N 04:47:07 25° WNW 04:48:14 22° W visible
23 Mar ? 03:08:57 10° NNE 03:12:41 38° E 03:12:46 38° E visible
23 Mar ? 04:44:17 10° N 04:47:33 25° WNW 04:48:49 21° W visible
